User: anonymous   Login
Location: Pine Mountain Observatory
(43.7910°N, 120.9377°W)
Time: 03:26:53
(UTC-07:00)
Language:

Courier 1B - Orbit

View from above orbital plane
View from above orbital plane
View from above satellite
View from above satellite

Ground track
Ground track

The orbit data is extracted from the following two-line orbital elements,

1    58U 60013A   19140.54151212  .00000092  00000-0  14345-4 0  9991
2    58  28.3277 293.0416 0164998  48.0151 313.4322 13.46317329886026
Epoch (UTC): 20 May 2019 12:59:46
Eccentricity: 0.0164998
inclination: 28.3277°
perigee height: 962 km
apogee height: 1209 km
right ascension of ascending node: 293.0416°
argument of perigee: 48.0151°
revolutions per day: 13.46317329
mean anomaly at epoch: 313.4322°
orbit number at epoch: 88602

The dashed part of the orbit path shows where the satellite is in the earth's shadow,  

DLR